Location: Unspecified
(52.4292°N, 19.3359°E)
Time: 00:50:51
(UTC+02:00)

A-11 Canister half - Pass Details

Date: 20 May 2024
Orbit: 1514 x 1685 km, 47.2° (Epoch: 20 June)

Event Time Altitude Azimuth Distance (km) Brightness Sun altitude
Rises 08:01:58 0° 277° (W) 4,686 11.0 28.3°
Reaches altitude 10° 08:05:06 10° 273° (W) 3,691 10.5 28.8°
Maximum altitude 08:13:58 53° 200° (SSW) 1,801 9.7 30.2°
Drops below altitude 10° 08:22:50 10° 127° (SE) 3,688 12.1 31.5°
Sets 08:25:58 0° 123° (ESE) 4,682 12.4 32.0°
